Regional Weather Roundup
Issued by NWS

Home | Current Version | Previous Version | Graphics & Text | Print | Product List | Glossary On
Versions: 1 2 3 4 5 6 7 8 9 10 11 12 13 14 15 16 17 18 19 20 21 22 23 24 25 26 27 28 29 30 31 32 33 34 35 36 37 38 39 40 41 42 43 44 45 46 47 48 49 50
000
ASUS43 KLSX 170607
RWRMO

WEATHER SUMMARY FOR MISSOURI
NATIONAL WEATHER SERVICE SPRINGFIELD MO
100 AM CDT THU APR 17 2014

NOTE: "FAIR" INDICATES FEW OR NO CLOUDS BELOW 12,000 FEET WITH NO
       SIGNIFICANT WEATHER AND/OR OBSTRUCTIONS TO VISIBILITY.
       CURRENT SKY AND/OR WEATHER CONDITIONS ARE NOT AVAILABLE FOR
       CHILLICOTHE AND FARMINGTON.

MOZ001>031-035>038-043-044-053-054-170700-
...NORTHERN AND WESTERN MISSOURI...

CITY           SKY/WX    TMP DP  RH WIND       PRES   REMARKS
KANSAS CTY INT MOCLDY    41  31  67 NW14      30.09R
6HR MIN TEMP:  41; 6HR MAX TEMP:  61;

KANSAS C DTWN  FAIR      45  33  63 NW10      30.09R
6HR MIN TEMP:  45; 6HR MAX TEMP:  63;

LEE`S SUMMIT   FAIR      46  33  60 NW15      30.09R
6HR MIN TEMP:  46; 6HR MAX TEMP:  61;

ST JOSEPH      MOCLDY    40  31  70 NW12      30.12R
6HR MIN TEMP:  39; 6HR MAX TEMP:  62;

CHILLICOTHE      N/A     45  34  65 NW10G20   30.08R
6HR MIN TEMP:  45; 6HR MAX TEMP:  63;

KIRKSVILLE     FAIR      49  30  48 S9        30.02R
6HR MIN TEMP:  43; 6HR MAX TEMP:  59;


$$
MOZ066>068-077>081-088>096-101>105-170700-
...SOUTHWEST MISSOURI...

CITY           SKY/WX    TMP DP  RH WIND       PRES   REMARKS
SPRINGFIELD    FAIR      47  30  51 S13       30.09R
6HR MIN TEMP:  47; 6HR MAX TEMP:  60;

JOPLIN         FAIR      51  31  46 S12       30.07R
6HR MIN TEMP:  51; 6HR MAX TEMP:  61;


$$
MOZ032>034-039>042-045>050-055>058-069>072-170700-
...CENTRAL MISSOURI...

CITY           SKY/WX    TMP DP  RH WIND       PRES   REMARKS
COLUMBIA       FAIR      48  29  47 S14       30.08R
6HR MIN TEMP:  48; 6HR MAX TEMP:  59;

JEFFERSON CITY FAIR      50  29  44 SE8       30.09R
6HR MIN TEMP:  49; 6HR MAX TEMP:  59;

ROLLA          FAIR      44  29  55 S12       30.10R
6HR MIN TEMP:  44; 6HR MAX TEMP:  53;

SEDALIA        FAIR      52  30  43 MISG      30.08R
6HR MIN TEMP:  51; 6HR MAX TEMP:  61;

WHITEMAN AFB   FAIR      47  31  55 SW3       30.08R
OSAGE BEACH    FAIR      46  27  46 S10       30.10R

$$
MOZ051-052-059>065-170700-
...EAST CENTRAL MISSOURI...

CITY           SKY/WX    TMP DP  RH WIND       PRES   REMARKS
ST LOUIS INTL  FAIR      49  28  44 S9        30.14S
6HR MIN TEMP:  49; 6HR MAX TEMP:  56;

SPIRIT OF STL  FAIR      47  27  45 VRB5      30.13R
6HR MIN TEMP:  47; 6HR MAX TEMP:  56;

ST CHARLES     FAIR      44  31  60 S7        30.13R
6HR MIN TEMP:  44; 6HR MAX TEMP:  54;


$$
MOZ072>076-082>087-097>100-106>115-170700-
...SOUTH CENTRAL AND SOUTHEAST MISSOURI...

CITY           SKY/WX    TMP DP  RH WIND       PRES   REMARKS
CAPE GIRARDEAU FAIR      41  34  76 S3        30.17R
6HR MIN TEMP:  40; 6HR MAX TEMP:  54;

FARMINGTON     FAIR      43  28  56 CALM      30.18S
6HR MIN TEMP:  43; 6HR MAX TEMP:  52;

POPLAR BLUFF   FAIR      42  35  76 NW3       30.17R
6HR MIN TEMP:  42; 6HR MAX TEMP:  54;

WEST PLAINS    FAIR      43  29  57 S8        30.16R
6HR MIN TEMP:  40; 6HR MAX TEMP:  53;


$$



USA.gov is the U.S. government's official web portal to all federal, state and local government web resources and services.